User: anonymous   Login
Location: *
(42.0175°N, 9.4056°E)
Time: 22:05:23
(UTC+00:00)
Language:

ADEOS Rocket - Orbit

View from above orbital plane
View from above orbital plane
View from above satellite
View from above satellite

Ground track
Ground track

The orbit data is extracted from the following two-line orbital elements,

1 24279U 96046C   19292.72811477 -.00000027  00000-0  14051-4 0  9994
2 24279  98.7011 140.6139 0299075 270.5957 129.4995 13.47132212139304
Epoch (UTC): 19 October 2019 17:28:29
Eccentricity: 0.0299075
inclination: 98.7011°
perigee height: 859 km
apogee height: 1306 km
right ascension of ascending node: 140.6139°
argument of perigee: 270.5957°
revolutions per day: 13.47132212
mean anomaly at epoch: 129.4995°
orbit number at epoch: 13930

The dashed part of the orbit path shows where the satellite is in the earth's shadow,  

DLR